Location: Frickengen
(47.8150°N, 9.2723°E)
Time: 11:22:09
(UTC+00:00)

Daily predictions for brighter satellites

Satellite Brightness Start Highest point End
(mag) Time Altitude Azimuth Time Altitude Azimuth Time Altitude Azimuth
Cosmos 2154 Rocket 4.3 18:27:42 10° SSE 18:33:38 45° E 18:39:37 10° NNE
ATLAS 3B R/B 3.1 18:26:12 10° SW 18:33:52 89° SE 18:41:50 10° NE
USA 229 DEB 3.8 18:30:00 10° SW 18:36:01 76° NW 18:42:50 10° NE
USA 229 3.8 18:30:03 10° SW 18:36:04 76° NW 18:42:54 10° NE
Cosmos 2278 3.8 18:33:35 10° SSW 18:39:15 85° WNW 18:44:58 10° NNE
Aureole 1 Rocket 2.2 18:35:57 10° S 18:39:16 60° ESE 18:42:15 10° NNE
Helios 1A Rocket 3.5 18:36:38 10° NE 18:39:19 23° E 18:41:57 10° SSE
Cosmos 1844 Rocket 3.6 18:35:10 10° NW 18:40:33 51° WSW 18:45:54 10° S
Cosmos 2228 Rocket 3.1 18:38:26 10° N 18:42:56 64° ENE 18:47:21 10° SSE
Cosmos 2360 Rocket 2.2 18:38:19 10° SSW 18:43:54 71° ESE 18:49:31 10° NNE
Okean-O 4.5 18:43:58 10° E 18:46:24 15° ENE 18:48:51 10° NNE
COSMO-SKYMED 1 4.3 18:43:08 10° N 18:46:56 37° WNW 18:50:43 10° SW
BlueWalker 3 3.8 18:45:40 10° W 18:48:32 22° SW 18:51:23 10° S
Cosmos 2184 Rocket 4.1 18:45:23 10° S 18:51:42 67° E 18:58:00 10° NNE
Cosmos 2322 Rocket 2.2 18:46:12 10° SSW 18:51:49 86° ESE 18:57:28 10° NNE
Cosmos 1666 Rocket 3.6 18:49:49 10° S 18:54:06 85° WNW 18:58:25 10° N
Cosmos 1633 Rocket 3.0 18:50:47 10° S 18:55:10 82° E 18:59:34 10° N
Cosmos 1340 Rocket 2.8 18:52:12 10° SSW 18:55:51 77° WNW 18:59:31 10° N
ADEOS 4.2 18:52:34 10° SE 18:57:19 37° ENE 19:02:06 10° N
Feng Yun 1-1 Rocket 4.4 18:53:14 10° SE 18:58:40 54° ENE 19:04:00 10° N
BREEZE-M DEB (TANK) 2.2 18:57:12 10° SW 18:59:21 42° SSE 19:02:12 10° ENE
SL-16 R/B 3.2 18:54:20 10° SW 18:59:51 51° WNW 19:05:24 10° NNE
Terra 2.5 18:55:56 10° SE 19:00:13 37° ENE 19:04:32 10° N
ATLAS 5 CENTAUR R/B 3.8 18:59:57 10° WNW 19:01:36 14° NNW 19:03:22 10° N
CSL-04 Debris 4.1 18:57:26 10° SSE 19:02:47 79° ENE 19:08:10 10° NNW
Cosmos 1898 Rocket 3.4 18:59:45 10° SSW 19:04:58 71° ESE 19:10:10 10° NNE
CZ-4 R/B 1.2 19:01:16 10° SSE 19:05:03 68° ENE 19:08:49 10° N
Resurs 01 Rocket 3.8 19:03:28 10° SSW 19:07:12 27° W 19:10:56 10° NW
Okean O Rocket 2.9 19:06:43 14° ESE 19:09:24 24° ENE 19:12:54 10° N
SL-08 R/B 4.2 19:05:37 10° NE 19:09:53 29° E 19:14:08 10° SSE
Meteor 1-24 Rocket 4.1 19:08:56 10° NNW 19:14:19 67° W 19:19:53 10° S
Cosmos 2333 4.2 19:08:55 10° SSW 19:14:31 85° WNW 19:20:10 10° NNE
Cosmos 372 Rocket 4.3 19:10:38 10° SSW 19:15:51 73° WNW 19:21:06 10° NNE
Cosmos 1680 Rocket 3.7 19:13:19 10° NNW 19:18:26 53° ENE 19:22:22 16° SE
Cosmos 2219 Rocket 2.1 19:14:47 10° SSW 19:20:21 83° ESE 19:25:59 10° NNE
SPOT 5 3.3 19:15:44 10° S 19:20:28 61° WSW 19:25:00 10° NNW
CZ-4B R/B 4.1 19:19:16 10° S 19:22:48 59° W 19:26:28 10° NNW
Cosmos 2074 Rocket 4.3 19:17:15 10° SSW 19:23:27 72° W 19:29:43 10° N
Meteor 1-31 Rocket 3.1 19:22:00 10° S 19:25:27 56° W 19:28:57 10° NNW
Cosmos 1937 Rocket 3.4 19:21:13 10° SSW 19:26:30 80° ESE 19:31:49 10° NNE
Cosmos 1339 Rocket 4.5 19:24:07 10° N 19:30:28 88° E 19:36:40 10° S
SL-24 R/B - RUBIN 2 3.7 19:28:12 10° NNW 19:32:35 64° NE 19:35:17 24° SE
USA 186 3.1 19:34:28 15° NE 19:34:28 15° NE 19:35:14 10° NNE
Cosmos 923 Rocket 4.0 19:29:06 10° NNW 19:34:27 87° WSW 19:38:50 15° SSE
USA 234 3.5 19:27:59 10° NE 19:34:30 72° NNW 19:41:02 10° WSW
SL-8 Rocket 4.2 19:29:47 10° SSE 19:35:42 47° E 19:41:41 10° NNE
Cosmos 2112 Rocket 4.1 19:30:50 10° NNW 19:36:01 61° ENE 19:39:16 22° SE
COSMOS 2428 3.1 19:32:26 10° S 19:37:43 40° ESE 19:43:01 10° NE
NOSS 2-3 (E) 4.2 19:33:03 10° NW 19:38:02 75° NE 19:42:20 22° SE
PAYLOAD B 4.3 19:34:14 10° SSE 19:39:44 80° WSW 19:45:16 10° NNW
Cosmos 1953 4.4 19:36:54 10° SW 19:39:58 26° WNW 19:43:05 10° NNW
CZ-4B R/B 3.2 19:35:07 12° SSE 19:40:13 86° ENE 19:45:53 10° NNW
MetOp-B 4.1 19:35:40 12° SSE 19:40:39 87° ENE 19:46:03 10° NNW
CZ-4B DEB 4.5 19:35:28 10° S 19:40:53 69° WSW 19:46:23 10° NNW
NOSS 2-3 (C) 4.4 19:36:36 10° NW 19:41:29 63° NE 19:45:27 24° ESE
Cosmos 2278 Rocket 2.9 19:39:40 10° NNW 19:45:01 40° NE 19:47:49 24° ESE
Cosmos 2366 rocket 4.1 19:40:01 11° SSE 19:45:40 51° E 19:51:35 10° NNE
SKYMED 3 4.1 19:42:17 10° NNE 19:46:11 73° ESE 19:50:02 10° S
Ariane Rocket 4.2 19:46:48 21° E 19:48:26 25° ENE 19:52:31 10° N
Cosmos 2327 Rocket 4.4 19:42:51 10° S 19:48:59 78° E 19:55:16 10° NNE
Cosmos 2333 Rocket 4.3 19:44:31 10° WSW 19:49:27 30° NW 19:54:25 10° NNE
NOSS 3-2 (C) 4.1 19:42:46 10° NW 19:50:06 82° SW 19:56:23 21° SSE
Cosmos 1703 Rocket 4.4 19:50:15 10° NNW 19:54:25 49° W 19:58:33 10° SSW
Geosat 4.3 19:49:43 10° NNE 19:54:43 70° WNW 19:59:41 10° SW
USA 32 4.3 19:53:57 28° SE 19:56:16 45° E 20:01:15 10° NNE
Spot 2 Rocket 3.4 19:53:55 27° SSE 19:56:38 68° ENE 20:01:38 10° N
BREEZE-M DEB (TANK) 2.3 19:54:33 10° WNW 19:57:06 69° N 19:59:33 25° E
Lacrosse 5 rocket 0.5 19:56:17 10° SW 19:59:29 88° SE 20:00:41 35° NE
CZ-2C R/B 4.3 20:00:39 16° NE 20:00:39 16° NE 20:01:49 10° NNE
NOSS 2-3 (D) 4.2 19:55:17 10° NW 20:00:21 85° SW 20:03:53 28° SE
ARIANE 6 FM1 Upper Stage 4.0 19:56:57 10° WSW 20:00:51 39° NW 20:04:40 10° NNE
Cosmos 1809 Rocket 4.4 19:55:35 10° N 20:01:42 66° ENE 20:05:08 27° SSE
ERS-1 Rocket 3.5 19:57:46 12° S 20:02:21 55° W 20:07:18 10° NNW
Cosmos 1378 Rocket 4.4 19:58:54 10° N 20:02:53 32° ENE 20:03:21 31° E
Cosmos 1933 Rocket 3.9 20:00:26 10° SSW 20:04:45 64° WNW 20:09:08 10° N
Cosmos 1943 Rocket 2.2 20:05:03 10° NNW 20:10:44 70° ENE 20:12:58 37° SE
Cosmos 2218 Rocket 3.9 20:06:05 16° S 20:11:01 72° E 20:17:09 10° NNE
YAOGAN 11 3.9 20:07:43 10° NNE 20:11:58 77° ESE 20:13:55 31° S
Meteor 1-11 4.3 20:09:23 10° N 20:14:51 55° ENE 20:16:33 40° SE
Meteor 2-15 4.3 20:11:09 22° S 20:15:08 68° E 20:21:11 10° NNE
In-Cosmos 22 Rocket 4.3 20:10:27 10° NNW 20:15:47 69° W 20:19:03 23° S
USA 59 Rocket 1.3 20:14:28 10° NNW 20:16:57 20° NE 20:17:17 20° NE
MOS 1-B 4.3 20:14:21 28° SSE 20:17:35 84° WSW 20:23:25 10° NNW
Cosmos 1733 Rocket 3.1 20:18:21 50° ESE 20:18:30 51° E 20:22:44 10° NNE
Cosmos 192 4.3 20:18:37 43° SSE 20:19:51 56° ESE 20:24:40 10° NNE
Cosmos 1959 Rocket 4.4 20:15:53 17° S 20:20:52 80° E 20:27:13 10° N
SeaSat 1 3.8 20:19:54 22° ENE 20:21:16 25° NE 20:25:13 10° N
CZ-4B R/B 3.6 20:20:21 45° ESE 20:21:23 55° ENE 20:26:05 10° N
NOSS 3-4 (A) 4.0 20:23:13 31° E 20:23:13 31° E 20:26:55 10° NE
Okean-O 2.7 20:20:35 40° S 20:22:07 74° WSW 20:26:31 10° NNW
IRS-1C Rocket 4.4 20:20:58 41° ESE 20:22:14 49° ENE 20:27:19 10° N
NOSS 3-4 (C) 4.0 20:23:46 31° E 20:23:46 31° E 20:27:26 10° NE
Cosmos 494 Rocket 4.4 20:19:02 10° NNW 20:24:06 58° WSW 20:26:29 30° S
Cosmos 1821 Rocket 3.9 20:22:24 31° SSE 20:25:29 67° E 20:31:45 10° NNE
Cosmos 2360 Rocket 4.5 20:23:50 10° W 20:28:25 25° NW 20:33:03 10° N
Cosmos 1048 Rocket 3.8 20:23:29 10° NNW 20:28:37 80° ENE 20:29:52 52° SE
Timation 2 Rocket 4.0 20:27:53 10° NNW 20:34:10 78° ENE 20:36:19 45° SE
Terra 3.5 20:34:16 13° SSW 20:37:47 29° W 20:41:52 10° NW
CZ-4 R/B 4.3 20:38:27 10° WSW 20:39:29 11° W 20:40:32 10° WNW
Aureole 3 3.5 20:35:27 10° N 20:39:36 83° E 20:40:03 72° SSE
Meteor 2-21 4.4 20:34:24 10° N 20:40:33 88° W 20:42:49 42° S
Cosmos 468 4.5 20:39:34 10° NNW 20:44:47 64° ENE 20:45:23 59° E
Okean O Rocket 2.6 20:43:57 31° SW 20:45:22 40° W 20:49:30 10° NNW
Cosmos 2242 Rocket 3.6 20:41:22 10° NNW 20:45:52 74° W 20:46:21 66° SSW
Cosmos 2237 Rocket 2.1 20:47:31 59° SE 20:47:50 60° ESE 20:53:27 10° NNE
Cosmos 1000 Rocket 4.5 20:41:43 10° N 20:47:53 64° ENE 20:49:04 53° SE
Cosmos 1980 3.6 20:47:57 59° SSE 20:48:39 65° ESE 20:54:15 10° NNE
Cosmos 1025 Rocket 3.5 20:45:56 10° N 20:49:24 47° NE 20:49:24 47° NE
Cosmos 1125 Rocket 4.0 20:51:20 45° ENE 20:51:20 45° ENE 20:55:27 10° NNE
CZ-4B R/B 3.2 20:51:35 54° WNW 20:51:35 54° WNW 20:54:35 10° NNW
ASTEX 1 3.5 20:50:47 56° SSW 20:51:44 72° W 20:56:39 10° N
Cosmos 2322 4.4 20:46:23 10° SW 20:51:58 55° WNW 20:57:37 10° NNE
Cosmos 2292 Rocket 3.9 20:48:13 10° N 20:53:58 67° ENE 20:54:03 67° E
Cosmos 1400 Rocket 4.1 21:03:02 31° N 21:03:02 31° N 21:05:02 10° N
IRS-P2 Rocket 4.4 21:02:29 75° SE 21:02:54 83° ENE 21:08:11 10° NNW
SPOT 3 Rocket 3.7 21:02:10 55° SSW 21:03:04 65° WSW 21:08:14 10° NNW
SL-08 R/B 4.3 21:11:04 67° SE 21:11:32 71° E 21:17:38 10° NNE
USA 234 4.3 21:10:57 10° ENE 21:17:01 42° N 21:23:06 10° WNW
Cosmos 2369 Rocket 3.2 21:15:32 10° NNW 21:20:36 34° NE 21:20:57 33° ENE
Cosmos 1674 Rocket 4.2 21:16:25 10° NNW 21:19:57 52° NW 21:19:57 52° NW
Helios 1B rocket 4.5 21:23:49 18° NNE 21:23:49 18° NNE 21:25:00 10° N
COSMOS 2428 4.0 21:16:36 10° WSW 21:21:57 39° NW 21:27:20 10° NNE
NOSS 0 Rocket 4.5 21:18:41 10° SW 21:24:49 58° NW 21:30:59 10° NNE
Cosmos 1727 Rocket 4.5 21:20:45 10° NNW 21:26:57 56° W 21:28:33 44° SW
Ariane Rocket 3.5 21:26:52 49° WSW 21:27:02 49° W 21:31:56 10° NNW
Cosmos 2278 Rocket 3.1 21:23:50 10° NW 21:29:04 39° WSW 21:29:39 38° WSW
USA 238 DEB 4.0 21:23:25 10° NW 21:30:47 67° SW 21:32:16 56° S
USA 238 4.0 21:23:35 10° NW 21:30:58 68° SW 21:32:26 57° S
Cosmos 2221 Rocket 4.4 21:26:57 10° NNW 21:30:11 48° NNW 21:30:11 48° NNW
Lacrosse 5 rocket 4.0 21:33:54 10° WNW 21:34:05 11° WNW 21:34:05 11° WNW
Cosmos 1656 Rocket 3.9 21:45:36 10° NNW 21:50:17 65° NW 21:50:17 65° NW
Cosmos 1943 Rocket 4.0 21:49:47 10° NW 21:53:52 21° W 21:54:29 20° WSW
SL-16 R/B 3.3 21:58:05 35° NE 21:58:05 35° NE 22:01:26 10° NE
SeaSat 1 3.2 21:59:30 47° WNW 21:59:30 47° WNW 22:03:10 10° NW
Cosmos 2123 Rocket 4.4 21:57:28 10° NNW 22:03:30 53° W 22:03:50 52° WSW
Cosmos 1934 Rocket 4.2 22:03:44 62° W 22:04:09 64° WNW 22:10:23 10° N
USA 59 Rocket 2.5 22:02:16 10° NW 22:02:48 14° NW 22:02:48 14° NW
NOSS 3-4 (A) 4.1 22:10:29 33° W 22:12:25 46° NW 22:18:10 10° NE
NOSS 3-4 (C) 4.1 22:11:02 34° W 22:12:54 46° NW 22:18:42 10° NE
Cosmos 2285 Rocket 4.1 22:19:16 74° N 22:19:16 74° N 22:25:03 10° NNE
ALOS 2 4.5 22:29:40 28° N 22:29:40 28° N 22:31:52 10° N
NOSS 3-1 (C) 4.0 22:21:01 10° NW 22:27:53 70° NE 22:28:44 65° E
ATLAS 5 CENTAUR R/B 4.2 22:27:22 10° N 22:29:10 13° NNE 22:29:34 13° NNE
Cosmos 1605 Rocket 4.2 22:32:45 62° NW 22:32:45 62° NW 22:38:15 10° N
Cosmos 2237 Rocket 3.9 22:29:12 18° W 22:32:16 28° NW 22:37:11 10° NNE
Cosmos 2297 4.4 22:33:10 10° NNW 22:37:29 52° NW 22:37:29 52° NW
COSMOS 2455 3.8 22:39:27 10° NNW 22:45:07 40° NE 22:45:16 40° NE
Cosmos 2173 Rocket 4.5 22:55:45 52° NE 22:55:45 52° NE 23:00:25 10° NNE
Cosmos 2100 Rocket 4.4 23:00:25 57° NNE 23:00:25 57° NNE 23:05:17 10° NNE
USA 234 4.2 22:53:09 10° E 22:59:15 43° NNE 23:05:22 10° WNW
Cosmos 2369 Rocket 3.5 22:59:26 10° NW 23:02:43 32° WNW 23:02:43 32° WNW
NOSS 3-1 (A) 4.1 23:12:06 10° NW 23:19:02 69° NE 23:19:58 64° E
Cosmos 1943 4.1 23:21:35 46° NNE 23:21:35 46° NNE 23:25:31 10° NNE
SJ 16-02 3.7 23:31:46 10° NNW 23:33:17 21° N 23:33:17 21° N
SL-16 R/B 3.7 23:39:53 28° NW 23:40:19 29° NW 23:45:13 10° NNE
ACS3 Solar Sail 3.3 23:36:05 10° NE 23:40:25 26° E 23:40:25 26° E
Cosmos 1802 Rocket 4.3 23:43:35 64° NNW 23:43:35 64° NNW 23:48:56 10° N
CZ-2C R/B 3.5 23:44:18 48° NNW 23:44:18 48° NNW 23:48:12 10° NNW
Cosmos 1725 Rocket 4.3 23:48:08 63° NNW 23:48:08 63° NNW 23:53:30 10° N
